Weather History for Alva, OK

Change the Weather History Date:

Tuesday, March 5, 2013

  Actual Average Record
Temperature  
Mean Temperature 32 °F -  
Max Temperature 41 °F 56 °F 91 °F (2009)
Min Temperature 24 °F 29 °F 1 °F (1960)
Degree Days  
Heating Degree Days 32    
Moisture  
Dew Point 21 °F    
Average Humidity 58    
Maximum Humidity 86    
Minimum Humidity 45    
Precipitation  
Precipitation 0.00 in - - ()
Sea Level Pressure  
Sea Level Pressure 30.33 in    
Wind  
Wind Speed 15 mph (NNW)    
Max Wind Speed 29 mph    
Max Gust Speed 36 mph    
Visibility 10 miles    
Events      
Averages and records for this station are not official NWS values.
T = Trace of Precipitation, MM = Missing Value Source: NWS Daily Summary

Daily Weather History Graph

Daily Weather History Graph

Search for Another Location

Airport:

Trip Planner

Search our weather history database for the weather conditions in past years. The results will help you decide how hot, cold, wet, or windy it might be!

Date:

Astronomy

Mar. 05, 2013 Rise Set
Actual Time 6:59 AM CST 6:33 PM CST
Civil Twilight 6:33 AM CST 6:59 PM CST
Nautical Twilight 6:03 AM CST 7:29 PM CST
Astronomical Twilight 5:33 AM CST 7:59 PM CST
Moon 2:06 AM CST (3/5) 12:20 PM CST (3/5)
Length of Visible Light 12h 25m
Length of Day
11h 33m
Last Quarter, 40% of the Moon is Illuminated
Mar 5
Last Quarter
Mar 11
New
Mar 19
First Quarter
Mar 27
Full
Apr 2
Last Quarter

Hourly Weather History & Observations

Time (CST) Temp. Windchill Dew Point Humidity Pressure Visibility Wind Dir Wind Speed Gust Speed Precip Events Conditions
12:30 AM 39.2 °F 28.7 °F 23.0 °F 52% 30.13 in 10.0 mi North 23.0 mph 29.9 mph N/A   Overcast
12:50 AM 39.2 °F 29.0 °F 23.0 °F 52% 30.16 in 10.0 mi NNW 21.9 mph 31.1 mph N/A   Overcast
1:10 AM 39.2 °F 28.7 °F 19.4 °F 45% 30.15 in 10.0 mi North 23.0 mph 33.4 mph N/A   Overcast
1:30 AM 37.4 °F 27.8 °F 19.4 °F 48% 30.17 in 10.0 mi NNW 17.3 mph 27.6 mph N/A   Mostly Cloudy
1:50 AM 37.4 °F 27.2 °F 19.4 °F 48% 30.19 in 10.0 mi NNW 19.6 mph 35.7 mph N/A   Partly Cloudy
2:10 AM 35.6 °F 24.2 °F 19.4 °F 52% 30.21 in 10.0 mi NNW 21.9 mph 28.8 mph N/A   Partly Cloudy
2:30 AM 35.6 °F 22.7 °F 17.6 °F 48% 30.22 in 10.0 mi North 28.8 mph 35.7 mph N/A   Partly Cloudy
3:10 AM 32.0 °F 19.2 °F 17.6 °F 55% 30.24 in 10.0 mi NNW 23.0 mph 31.1 mph N/A   Partly Cloudy
3:30 AM 32.0 °F 20.5 °F 17.6 °F 55% 30.25 in 10.0 mi NNW 18.4 mph 24.2 mph N/A   Clear
3:50 AM 32.0 °F 21.6 °F 17.6 °F 55% 30.26 in 10.0 mi NNW 15.0 mph - N/A   Clear
4:10 AM 32.0 °F 21.6 °F 15.8 °F 51% 30.26 in 10.0 mi NNW 15.0 mph - N/A   Clear
4:30 AM 30.2 °F 20.8 °F 17.6 °F 60% 30.27 in 10.0 mi NNW 11.5 mph - N/A   Clear
4:50 AM 28.4 °F 19.1 °F 17.6 °F 64% 30.28 in 10.0 mi NW 10.4 mph - N/A   Clear
5:10 AM 28.4 °F 19.1 °F 17.6 °F 64% 30.28 in 10.0 mi NNW 10.4 mph - N/A   Clear
5:30 AM 28.4 °F 19.1 °F 17.6 °F 64% 30.30 in 10.0 mi NW 10.4 mph - N/A   Clear
5:50 AM 28.4 °F 17.5 °F 15.8 °F 59% 30.30 in 10.0 mi NNW 13.8 mph - N/A   Clear
6:10 AM 28.4 °F 18.0 °F 17.6 °F 64% 30.32 in 10.0 mi NW 12.7 mph - N/A   Clear
6:50 AM 26.6 °F 16.8 °F 17.6 °F 69% 30.33 in 10.0 mi NW 10.4 mph - N/A   Clear
7:10 AM 24.8 °F 14.0 °F 17.6 °F 74% 30.35 in 10.0 mi WNW 11.5 mph - N/A   Clear
7:30 AM 24.8 °F 14.0 °F 17.6 °F 74% 30.36 in 10.0 mi WNW 11.5 mph - N/A   Clear
7:50 AM 26.6 °F 16.2 °F 17.6 °F 69% 30.37 in 10.0 mi WNW 11.5 mph - N/A   Clear
8:10 AM 28.4 °F 17.5 °F 17.6 °F 64% 30.37 in 10.0 mi WNW 13.8 mph 18.4 mph N/A   Clear
8:30 AM 28.4 °F 16.6 °F 19.4 °F 69% 30.38 in 10.0 mi NW 16.1 mph - N/A   Clear
8:50 AM 32.0 °F 22.1 °F 17.6 °F 55% 30.39 in 10.0 mi NW 13.8 mph 23.0 mph N/A   Clear
9:10 AM 32.0 °F 21.2 °F 17.6 °F 55% 30.39 in 10.0 mi NNW 16.1 mph - N/A   Clear
9:30 AM 32.0 °F 20.1 °F 17.6 °F 55% 30.40 in 10.0 mi NNW 19.6 mph 26.5 mph N/A   Clear
9:50 AM 32.0 °F 20.5 °F 17.6 °F 55% 30.39 in 10.0 mi NNW 18.4 mph - N/A   Clear
10:10 AM 33.8 °F 23.5 °F 17.6 °F 52% 30.40 in 10.0 mi NNW 16.1 mph 26.5 mph N/A   Clear
10:30 AM 35.6 °F 24.8 °F 17.6 °F 48% 30.40 in 10.0 mi NNW 19.6 mph - N/A   Clear
10:50 AM 35.6 °F 25.5 °F 17.6 °F 48% 30.39 in 10.0 mi NNW 17.3 mph 24.2 mph N/A   Clear
11:10 AM 35.6 °F 25.9 °F 17.6 °F 48% 30.39 in 10.0 mi NNW 16.1 mph 25.3 mph N/A   Clear
11:30 AM 35.6 °F 25.2 °F 17.6 °F 48% 30.39 in 10.0 mi NNW 18.4 mph 24.2 mph N/A   Clear
11:50 AM 35.6 °F 25.2 °F 17.6 °F 48% 30.39 in 10.0 mi NNW 18.4 mph 24.2 mph N/A   Clear
12:10 PM 37.4 °F 28.2 °F 19.4 °F 48% 30.39 in 10.0 mi NNW 16.1 mph 23.0 mph N/A   Clear
12:50 PM 37.4 °F 27.8 °F 19.4 °F 48% 30.38 in 10.0 mi NW 17.3 mph 23.0 mph N/A   Clear
1:10 PM 39.2 °F 31.2 °F 19.4 °F 45% 30.37 in 10.0 mi NW 13.8 mph 18.4 mph N/A   Clear
1:30 PM 39.2 °F 30.2 °F 21.2 °F 49% 30.36 in 10.0 mi NW 17.3 mph 21.9 mph N/A   Clear
1:50 PM 39.2 °F 30.8 °F 21.2 °F 49% 30.36 in 10.0 mi NNW 15.0 mph 19.6 mph N/A   Clear
2:10 PM 39.2 °F 32.0 °F 23.0 °F 52% 30.35 in 10.0 mi NNW 11.5 mph - N/A   Clear
2:30 PM 39.2 °F 30.8 °F 23.0 °F 52% 30.34 in 10.0 mi North 15.0 mph - N/A   Clear
2:50 PM 41.0 °F 33.5 °F 21.2 °F 45% 30.34 in 10.0 mi NNW 13.8 mph 19.6 mph N/A   Clear
3:10 PM 41.0 °F 34.3 °F 23.0 °F 49% 30.34 in 10.0 mi North 11.5 mph - N/A   Clear
3:30 PM 41.0 °F 35.2 °F 23.0 °F 49% 30.34 in 10.0 mi North 9.2 mph - N/A   Clear
3:50 PM 41.0 °F 33.1 °F 23.0 °F 49% 30.34 in 10.0 mi North 15.0 mph - N/A   Clear
4:10 PM 41.0 °F 33.5 °F 23.0 °F 49% 30.34 in 10.0 mi North 13.8 mph - N/A   Clear
4:30 PM 41.0 °F 35.2 °F 23.0 °F 49% 30.34 in 10.0 mi North 9.2 mph - N/A   Clear
4:50 PM 41.0 °F 35.8 °F 23.0 °F 49% 30.34 in 10.0 mi NNE 8.1 mph - N/A   Clear
5:10 PM 41.0 °F 36.4 °F 24.8 °F 53% 30.34 in 10.0 mi NNE 6.9 mph - N/A   Clear
5:30 PM 41.0 °F 35.8 °F 24.8 °F 53% 30.34 in 10.0 mi North 8.1 mph - N/A   Clear
5:50 PM 39.2 °F 34.2 °F 23.0 °F 52% 30.34 in 10.0 mi North 6.9 mph - N/A   Clear
6:10 PM 39.2 °F 35.0 °F 24.8 °F 56% 30.34 in 10.0 mi NNE 5.8 mph - N/A   Clear
6:30 PM 37.4 °F 34.9 °F 24.8 °F 60% 30.35 in 10.0 mi NE 3.5 mph - N/A   Clear
6:50 PM 37.4 °F 34.9 °F 24.8 °F 60% 30.35 in 10.0 mi NNE 3.5 mph - N/A   Clear
7:10 PM 37.4 °F - 24.8 °F 60% 30.36 in 10.0 mi Calm Calm - N/A   Clear
7:30 PM 35.6 °F - 24.8 °F 65% 30.36 in 10.0 mi Calm Calm - N/A   Clear
7:50 PM 35.6 °F - 24.8 °F 65% 30.36 in 10.0 mi Calm Calm - N/A   Clear
8:10 PM 35.6 °F - 24.8 °F 65% 30.36 in 10.0 mi Calm Calm - N/A   Clear
8:30 PM 35.6 °F - 24.8 °F 65% 30.37 in 10.0 mi Calm Calm - N/A   Clear
8:50 PM 35.6 °F - 23.0 °F 60% 30.37 in 10.0 mi Calm Calm - N/A   Clear
9:10 PM 32.0 °F 28.7 °F 24.8 °F 75% 30.37 in 10.0 mi NNW 3.5 mph - N/A   Clear
9:30 PM 33.8 °F 29.6 °F 24.8 °F 70% 30.38 in 10.0 mi NW 4.6 mph - N/A   Clear
9:50 PM 32.0 °F 28.7 °F 24.8 °F 75% 30.39 in 10.0 mi North 3.5 mph - N/A   Clear
10:10 PM 30.2 °F 24.3 °F 23.0 °F 75% 30.39 in 10.0 mi North 5.8 mph - N/A   Clear
10:30 PM 28.4 °F 24.6 °F 23.0 °F 80% 30.39 in 10.0 mi North 3.5 mph - N/A   Clear
10:50 PM 30.2 °F - 23.0 °F 75% 30.39 in 10.0 mi Calm Calm - N/A   Clear
11:10 PM 24.8 °F - 21.2 °F 86% 30.40 in 10.0 mi Calm Calm - N/A   Clear
11:30 PM 28.4 °F 24.6 °F 24.8 °F 86% 30.40 in 10.0 mi NW 3.5 mph - N/A   Clear
11:50 PM 28.4 °F 23.3 °F 23.0 °F 80% 30.39 in 10.0 mi WNW 4.6 mph - N/A   Clear